Temperature
18 18 18 18 18 18 18 18 18 18 18 18 18 18 18 18 18 18 18 18 17 17 17 17 17 17 17 17 17 16 16 16 16 16 16 16 16 16 16 16 16 16 16
18 18 18 18 18 18 18 18 18 18 18 18 18 18 18 18 18 18 18 18 17 17 17 17 17 17 17 17 17 16 16 16 16 16 16 16 16 16 16 16 16 16 16
18 18 18 18 18 18 18 18 18 18 18 18 18 18 18 18 18 18 18 17 17 17 17 17 17 17 17 17 16 16 16 16 16 16 16 16 16 16 16 16 16 16 16
18 18 18 18 18 18 18 18 18 17 17 18 18 18 17 17 17 17 17 17 17 17 17 17 17 17 17 17 16 16 16 16 16 16 16 16 16 16 16 16 15 15 15
18 18 18 18 18 18 18 18 18 17 18 17 18 18 17 17 17 17 17 17 17 17 17 17 17 17 16 16 16 16 16 16 16 16 16 16 16 16 15 15 15 15 15
18 18 18 18 18 18 18 18 17 17 18 17 17 17 17 17 17 17 17 17 17 17 17 17 17 16 16 16 16 16 16 16 16 16 16 16 16 15 15 15 15 15 15
18 18 18 18 18 18 18 18 17 17 17 17 17 17 17 17 17 17 17 17 17 17 17 17 17 16 16 16 16 16 16 16 16 16 16 15 15 15 15 15 15 15 15
18 18 18 18 18 17 17 17 17 17 17 17 17 17 17 17 17 17 17 17 17 17 17 17 16 16 16 16 16 16 16 16 15 15 15 15 15 15 15 15 15 15 15
18 18 18 18 18 17 17 17 17 17 17 17 17 17 17 17 17 17 17 17 17 17 17 17 17 16 16 16 16 16 16 15 15 15 15 15 15 15 15 15 15 15 15
18 18 18 17 17 17 17 17 17 17 17 17 17 17 17 18 17 17 17 17 17 17 17 17 17 16 16 16 16 16 15 15 15 15 15 15 15 15 15 15 14 14 14
17 17 17 17 17 17 17 17 17 17 17 17 17 17 17 17 17 17 17 17 17 17 17 17 17 16 16 16 16 16 15 15 15 15 15 15 15 15 15 15 14 14 14
17 17 17 17 17 17 17 17 17 17 17 17 17 17 17 17 17 17 17 17 17 17 17 17 16 16 16 16 16 16 15 15 15 15 15 15 15 15 15 15 14 14 14
17 17 17 17 17 17 17 17 17 17 17 17 17 17 17 17 17 17 17 17 17 17 17 17 17 16 16 16 16 16 15 15 15 15 15 15 15 15 15 14 14 14 14
18 17 17 17 17 17 17 17 17 17 17 17 17 17 17 17 17 17 17 17 17 17 17 17 17 16 16 16 16 16 15 15 15 15 15 15 15 15 15 14 14 14 14
17 17 17 17 17 17 17 17 17 17 17 17 17 17 17 17 17 17 17 17 17 17 17 17 17 17 16 16 16 16 16 15 15 15 15 15 15 15 14 14 14 14 14
17 17 17 17 17 17 17 17 17 16 16 16 16 17 17 17 17 17 17 17 17 17 17 17 17 17 16 16 16 16 16 16 15 15 15 15 15 15 14 14 14 14 14
17 17 17 17 17 17 16 16 16 16 16 16 16 16 16 16 16 16 16 17 16 17 17 17 16 16 16 16 16 16 16 15 15 15 15 15 15 15 15 14 14 14 14
17 17 17 17 17 17 16 16 16 16 16 16 16 16 16 16 16 16 16 16 16 16 16 16 16 16 16 16 16 16 16 15 15 15 15 15 15 15 14 14 14 14 14
17 17 17 17 17 17 16 16 16 16 16 16 16 16 16 16 16 16 16 16 16 16 16 16 16 16 16 16 16 15 15 15 15 15 15 15 15 14 14 14 14 14 14
17 17 17 17 17 16 16 16 16 16 16 16 16 16 16 16 16 16 16 16 16 16 16 16 16 16 16 16 15 15 15 15 15 15 15 15 14 14 14 14 14 14 14
17 17 17 17 16 16 16 16 16 16 16 16 16 16 16 16 16 16 16 16 15 15 16 16 15 15 15 15 15 15 15 15 15 15 15 15 14 14 14 14 14 14 14
17 16 16 16 16 16 16 16 16 16 16 16 16 16 16 15 15 15 15 15 15 15 15 15 15 15 15 15 15 15 15 15 15 15 14 14 14 14 14 14 14 13 13
17 16 17 16 17 17 16 16 16 16 16 16 16 16 16 16 15 15 15 15 15 15 15 15 15 15 15 15 15 14 14 14 14 14 14 14 14 14 14 13 13 13 13
17 16 16 16 16 16 16 16 16 15 15 16 16 16 15 15 15 15 15 15 15 15 15 15 15 15 15 14 14 14 14 14 14 14 13 13 13 13 13 13 13 12 12
17 16 16 16 16 16 16 16 15 15 15 15 15 15 15 15 15 15 15 15 15 15 15 14 14 14 14 14 14 13 13 13 13 13 13 12 12 12 12 12 12 12 12
16 16 16 16 16 16 16 16 15 15 15 15 15 15 15 15 15 15 14 14 14 15 14 14 14 14 14 13 13 13 13 12 12 12 12 12 12 11 11 12 11 11 11
Wind_Speed
6 6 5 6 6 6 5 4 3 3 3 5 7 9 9 10 11 11 12 14 14 14 13 12 12 11 11 11 10 9 9 9 9 9 9 9 9 9 9 9 8 8 8
8 6 5 5 5 7 7 6 4 3 3 3 5 8 10 11 11 11 11 13 14 14 13 12 12 11 11 11 10 9 9 9 9 9 9 9 9 9 9 9 8 8 8
11 8 5 4 6 8 7 5 4 4 3 3 4 6 8 9 10 11 11 11 12 12 12 12 11 11 10 10 10 10 9 9 9 9 9 9 9 9 9 9 9 9 9
14 9 5 5 7 7 5 4 3 3 3 3 3 4 5 7 8 10 11 11 11 10 11 12 11 11 10 10 10 10 9 9 10 10 10 10 10 9 9 9 9 9 9
14 10 6 5 8 5 3 3 3 3 3 3 3 3 3 4 5 8 8 10 11 11 11 11 11 11 11 10 9 9 9 9 10 10 10 10 10 11 10 10 10 10 10
13 10 6 6 7 5 4 3 3 3 3 3 3 3 2 3 4 5 6 8 10 11 11 10 10 10 10 10 9 8 8 9 9 9 9 9 9 10 10 11 11 11 11
12 9 6 5 5 5 5 6 4 3 2 2 3 3 3 1 2 3 4 5 7 10 11 11 10 9 8 9 9 9 8 8 9 9 9 9 9 9 9 10 10 11 11
11 9 7 6 6 5 5 5 4 3 2 2 4 3 2 3 2 2 3 5 5 7 8 10 11 11 10 9 9 9 9 8 8 8 8 8 8 8 9 9 10 10 11
11 9 9 7 6 6 6 5 5 5 3 1 2 4 4 4 2 2 2 3 4 4 4 8 11 12 12 11 10 10 10 9 8 8 7 8 8 8 8 8 8 9 10
9 10 10 8 7 6 6 6 5 4 5 3 1 1 3 4 4 1 2 2 3 4 5 5 9 12 13 12 12 12 11 10 10 8 8 8 8 7 7 7 8 8 8
7 9 9 7 7 6 7 6 5 5 4 4 3 2 2 2 2 3 2 2 2 2 4 4 6 9 13 13 13 13 13 12 11 10 9 8 7 7 7 8 8 8 9
5 7 9 7 7 6 6 6 6 6 5 4 3 3 3 3 3 3 3 2 2 3 2 3 4 7 11 13 13 14 14 13 12 11 10 9 9 9 9 9 9 9 10
6 8 8 7 6 6 7 6 6 6 6 5 4 3 3 3 3 4 4 2 2 2 1 2 4 7 10 13 14 15 15 14 14 13 12 12 11 11 10 10 10 10 10
8 9 9 8 8 7 7 6 5 5 5 5 5 4 3 2 3 4 4 4 2 1 2 3 2 5 9 12 14 15 14 16 16 15 14 14 14 13 13 13 12 12 12
8 9 10 9 9 8 8 7 5 5 5 5 5 5 3 2 2 3 3 4 5 3 3 3 2 3 7 10 13 14 14 16 16 17 17 16 16 16 16 15 15 15 14
9 10 10 10 9 9 8 7 5 5 6 5 4 5 3 2 2 2 3 3 4 5 4 4 4 3 4 7 12 14 15 15 16 18 18 19 19 19 19 18 18 17 17
10 11 11 11 10 9 9 8 7 7 7 6 5 5 5 3 3 2 2 2 3 4 4 3 2 2 2 3 4 10 12 13 14 17 19 20 21 21 21 21 20 20 19
10 11 11 10 11 10 9 9 8 7 7 7 6 5 5 4 3 2 2 3 3 3 4 3 2 2 3 4 4 4 7 10 12 14 17 18 19 20 21 21 21 21 21
10 10 10 11 10 10 10 9 9 8 8 8 7 7 6 6 4 3 3 3 2 2 3 3 3 2 2 2 2 3 4 4 8 11 12 14 16 18 19 20 21 22 22
10 10 10 10 10 10 10 9 9 8 7 7 7 7 7 7 7 6 4 4 3 2 2 2 2 2 2 2 1 2 3 3 4 5 7 8 10 12 14 16 18 19 21
11 10 10 9 9 9 10 10 9 9 8 7 6 7 8 9 10 8 6 6 5 3 3 2 2 1 2 1 2 2 3 3 4 3 3 4 5 6 10 12 14 16 18
9 9 10 10 9 9 12 14 11 8 8 8 7 6 7 8 10 11 11 10 9 7 6 4 4 4 4 4 3 3 2 2 4 3 1 4 2 4 6 10 12 14 14
9 10 10 10 10 9 13 14 14 9 8 8 8 7 6 7 8 6 8 9 9 10 10 7 7 7 6 6 4 3 4 4 5 4 1 4 3 5 7 10 12 13 13
9 9 10 10 9 10 13 14 14 9 8 8 8 8 8 6 7 8 7 6 6 7 8 7 7 8 7 6 6 5 5 4 4 4 3 4 4 4 5 9 12 12 13
8 8 8 9 9 9 13 14 13 7 6 7 7 7 8 7 9 11 7 6 6 6 8 11 11 10 11 10 7 3 2 2 4 4 3 3 4 4 4 5 10 12 12
9 8 8 8 9 8 10 13 13 6 7 6 5 6 9 9 10 11 8 7 7 7 4 3 4 5 6 6 8 7 6 4 4 4 3 3 3 2 4 4 4 8 10
Wind_Direction
157 158 160 162 164 159 158 159 158 141 124 114 126 135 142 146 150 156 161 164 165 163 163 162 162 162 163 164 165 165 166 165 164 166 166 164 164 164 164 164 161 160 159
161 160 161 166 168 169 165 160 155 140 134 133 138 144 149 154 159 162 163 170 173 172 172 172 172 172 173 174 175 177 179 179 177 177 178 177 176 175 177 178 176 174 175
162 160 161 162 167 165 154 140 130 119 124 129 131 139 154 161 167 168 169 171 177 181 181 181 181 181 180 181 184 187 191 192 190 188 190 190 190 189 192 193 191 189 190
163 158 159 164 161 152 140 130 120 112 113 125 135 144 154 164 169 172 174 178 181 186 191 190 189 188 189 191 194 197 198 200 200 200 201 203 203 204 206 207 205 204 205
163 157 158 164 159 145 141 149 124 128 131 137 148 143 151 161 166 174 178 184 189 192 193 198 198 198 199 199 200 202 201 203 206 207 209 213 215 216 216 216 216 215 216
162 153 155 158 155 142 145 142 137 132 142 149 133 121 145 162 166 179 186 189 194 195 197 198 200 203 207 206 205 206 204 205 208 210 212 214 217 220 221 221 222 224 225
159 155 154 153 152 155 164 157 141 137 131 121 91 55 16 31 177 185 184 181 193 198 197 198 197 197 202 206 206 206 207 208 210 215 217 218 219 221 223 223 226 229 230
163 165 156 161 161 156 159 158 142 135 136 132 127 108 52 3 333 227 194 190 192 190 194 200 197 196 196 197 206 207 207 207 208 211 212 214 218 221 227 230 231 233 235
170 166 165 162 166 162 169 171 157 145 154 170 152 143 148 199 269 323 255 202 190 187 196 195 194 197 199 199 202 206 208 207 208 211 214 217 222 227 232 238 241 240 241
175 171 167 167 169 168 170 177 164 151 148 162 171 162 159 154 151 203 322 280 214 200 200 194 189 194 198 198 202 207 209 210 213 215 218 222 226 230 234 241 245 246 248
180 174 171 168 171 174 175 173 158 156 153 160 167 162 131 114 126 143 200 284 299 242 212 198 187 192 196 199 203 209 210 212 215 218 221 223 226 230 236 243 249 252 255
186 182 176 174 176 178 178 176 167 160 161 155 159 162 158 158 170 158 175 209 233 264 240 215 200 197 199 203 206 210 212 214 217 220 224 226 229 235 242 250 256 257 259
190 192 183 178 179 179 175 167 165 163 164 162 166 169 165 173 166 156 150 171 215 283 294 253 222 205 204 205 210 213 214 217 220 224 230 233 237 242 248 252 256 259 261
194 186 181 179 178 175 175 166 161 168 167 169 173 166 163 178 169 166 160 150 146 311 304 268 264 217 209 205 212 212 215 221 225 230 235 240 244 248 251 253 255 257 259
191 182 181 178 179 178 174 165 167 171 169 174 173 171 170 186 172 167 162 156 153 176 241 260 255 236 212 207 211 209 217 224 230 235 240 244 248 251 254 255 256 257 259
189 179 180 180 178 176 172 168 167 173 171 179 176 171 178 187 169 153 155 158 154 159 202 242 239 240 209 209 215 211 221 230 235 239 244 248 251 253 255 256 257 258 260
188 185 183 182 180 179 175 171 176 174 178 186 182 177 188 175 161 159 149 149 153 149 178 249 251 243 197 211 207 221 233 238 244 247 249 253 256 256 256 257 258 260 261
185 184 181 182 185 184 180 178 184 182 182 187 191 180 191 180 169 166 157 164 171 170 164 198 243 238 223 221 217 224 235 240 246 254 256 257 259 260 260 260 261 262 264
180 180 180 184 186 185 183 184 182 184 188 191 189 186 191 179 186 189 180 178 182 171 157 170 221 247 256 247 234 253 254 258 261 262 261 262 264 265 266 266 266 267 268
180 181 183 184 183 182 183 183 182 185 192 197 194 192 193 188 191 192 190 192 185 171 162 170 213 249 261 270 204 243 272 268 270 276 275 274 276 276 274 273 273 273 273
184 181 180 180 179 182 189 185 186 189 189 195 200 201 201 197 196 194 194 194 186 185 184 189 215 233 254 256 237 230 242 275 281 261 278 285 285 289 291 290 285 281 279
182 178 182 181 184 195 194 190 187 188 190 194 202 207 209 204 205 205 202 193 185 187 194 195 206 215 233 227 224 219 223 263 285 271 245 277 264 276 283 286 285 286 287
183 184 185 185 191 197 192 191 192 186 191 199 202 202 213 212 202 200 208 210 210 209 197 191 206 220 221 216 206 224 224 223 238 247 224 276 276 274 278 283 288 292 294
186 188 189 189 191 201 196 196 197 192 197 204 204 200 202 212 207 199 204 213 226 230 221 211 214 222 221 215 203 211 220 236 259 258 198 252 271 268 279 284 288 291 295
188 190 189 189 194 204 201 201 194 192 200 209 209 203 200 209 218 205 197 211 231 246 244 230 228 234 238 236 215 188 218 233 272 274 212 219 262 277 281 277 281 284 289
189 189 192 194 196 202 202 201 193 192 201 209 213 213 211 211 217 208 201 204 224 240 237 240 241 253 251 251 230 208 210 218 241 267 241 210 250 271 294 280 279 285 292
Height
1550 1553 1555 1557 1559 1560 1562 1564 1565 1567 1568 1569 1570 1571 1571 1572 1572 1573 1573 1574 1575 1576 1576 1577 1578 1578 1579 1580 1581 1581 1582 1583 1583 1584 1584 1585 1585 1586 1586 1587 1587 1588 1588
1550 1553 1555 1557 1559 1561 1562 1564 1566 1567 1568 1569 1570 1571 1572 1573 1573 1574 1574 1575 1576 1576 1577 1577 1578 1579 1579 1580 1581 1581 1582 1583 1583 1584 1584 1585 1585 1586 1586 1587 1588 1588 1588
1550 1552 1554 1556 1558 1560 1562 1564 1566 1567 1568 1569 1571 1571 1572 1573 1574 1575 1575 1576 1576 1577 1577 1578 1578 1579 1580 1580 1581 1581 1582 1583 1583 1584 1584 1585 1585 1586 1586 1587 1587 1588 1588
1549 1552 1554 1556 1558 1560 1562 1563 1565 1566 1568 1569 1570 1571 1572 1573 1574 1575 1576 1576 1577 1577 1578 1578 1579 1579 1580 1580 1581 1581 1582 1582 1583 1583 1584 1584 1585 1585 1586 1586 1587 1587 1588
1548 1551 1553 1555 1557 1559 1561 1563 1564 1566 1567 1569 1570 1572 1573 1573 1574 1575 1576 1576 1577 1577 1578 1578 1579 1579 1580 1580 1580 1581 1581 1582 1582 1583 1583 1583 1584 1584 1585 1585 1586 1586 1587
1547 1549 1552 1554 1556 1558 1560 1562 1563 1565 1567 1569 1570 1571 1572 1573 1574 1575 1576 1576 1577 1577 1577 1578 1578 1579 1579 1580 1580 1581 1581 1581 1581 1582 1582 1582 1583 1583 1584 1584 1584 1585 1585
1545 1548 1550 1553 1555 1557 1558 1560 1562 1564 1566 1567 1569 1571 1572 1573 1573 1574 1575 1575 1576 1576 1577 1577 1578 1579 1579 1579 1579 1580 1580 1580 1580 1580 1581 1581 1581 1582 1582 1582 1583 1583 1583
1543 1546 1549 1551 1553 1555 1557 1559 1561 1563 1564 1566 1568 1569 1571 1573 1572 1573 1574 1574 1575 1576 1576 1577 1577 1578 1578 1578 1579 1579 1579 1579 1579 1579 1579 1580 1580 1580 1580 1580 1581 1581 1581
1541 1544 1546 1549 1551 1553 1555 1557 1559 1561 1563 1565 1567 1568 1569 1570 1571 1572 1572 1573 1574 1574 1575 1576 1576 1577 1577 1577 1578 1578 1578 1578 1578 1578 1578 1578 1578 1578 1578 1578 1578 1578 1578
1539 1541 1544 1546 1549 1551 1553 1556 1558 1560 1562 1563 1565 1566 1568 1568 1569 1570 1571 1572 1572 1573 1574 1574 1575 1575 1576 1576 1576 1576 1576 1576 1576 1576 1576 1576 1576 1576 1576 1576 1575 1575 1575
1536 1539 1541 1544 1546 1549 1551 1554 1556 1558 1560 1561 1563 1564 1565 1566 1567 1568 1569 1570 1571 1572 1572 1573 1573 1574 1574 1575 1575 1575 1575 1575 1575 1574 1574 1574 1574 1574 1574 1573 1573 1572 1572
1533 1536 1539 1541 1544 1546 1549 1551 1553 1556 1558 1559 1561 1562 1563 1564 1565 1566 1567 1568 1569 1570 1571 1571 1572 1572 1573 1573 1573 1574 1574 1573 1573 1573 1573 1572 1572 1572 1571 1571 1570 1570 1569
1529 1532 1535 1538 1541 1544 1546 1549 1551 1553 1555 1557 1558 1560 1561 1563 1564 1565 1566 1566 1568 1569 1569 1570 1570 1571 1571 1572 1572 1572 1572 1572 1572 1571 1571 1571 1570 1570 1569 1568 1568 1567 1566
1526 1529 1532 1535 1538 1541 1544 1546 1548 1550 1553 1555 1556 1558 1559 1561 1562 1563 1564 1565 1566 1567 1567 1568 1568 1569 1570 1570 1571 1571 1571 1571 1570 1570 1569 1569 1568 1567 1567 1566 1565 1564 1564
1523 1526 1529 1532 1535 1538 1541 1543 1546 1548 1550 1552 1554 1556 1557 1559 1560 1561 1562 1563 1564 1564 1565 1566 1567 1567 1568 1568 1569 1569 1569 1569 1568 1568 1567 1567 1566 1565 1564 1564 1563 1562 1561
1520 1523 1526 1529 1532 1535 1538 1540 1542 1545 1547 1549 1551 1553 1555 1556 1558 1559 1560 1561 1562 1563 1563 1564 1564 1565 1566 1566 1567 1567 1567 1566 1566 1565 1565 1564 1564 1563 1562 1561 1560 1559 1558
1516 1519 1523 1526 1529 1531 1534 1537 1539 1542 1544 1546 1548 1550 1552 1553 1555 1556 1557 1558 1559 1560 1561 1561 1562 1563 1563 1564 1564 1564 1564 1564 1563 1563 1562 1561 1561 1560 1559 1558 1557 1556 1555
1513 1516 1519 1522 1525 1528 1531 1533 1536 1538 1541 1543 1545 1547 1549 1550 1552 1554 1555 1556 1557 1557 1558 1559 1560 1560 1561 1561 1561 1561 1561 1561 1560 1560 1559 1558 1557 1556 1555 1554 1553 1552 1551
1509 1513 1516 1519 1522 1524 1527 1530 1533 1535 1538 1540 1542 1544 1546 1548 1549 1551 1552 1553 1554 1555 1555 1556 1557 1557 1558 1558 1558 1558 1558 1558 1557 1556 1555 1554 1553 1552 1551 1550 1549 1548 1546
1506 1509 1512 1516 1518 1521 1524 1527 1529 1532 1534 1537 1539 1541 1543 1544 1546 1547 1549 1550 1551 1552 1552 1553 1553 1554 1555 1555 1555 1554 1554 1554 1553 1552 1551 1550 1549 1548 1547 1546 1544 1543 1541
1503 1506 1509 1512 1515 1518 1520 1523 1526 1529 1531 1533 1536 1537 1539 1541 1543 1544 1545 1547 1548 1548 1549 1549 1550 1550 1551 1551 1551 1550 1550 1549 1548 1548 1547 1546 1544 1543 1542 1540 1539 1537 1535
1500 1503 1506 1509 1512 1514 1517 1520 1523 1526 1528 1530 1532 1534 1536 1538 1539 1541 1542 1543 1544 1544 1545 1545 1546 1546 1546 1547 1547 1546 1545 1544 1543 1543 1541 1540 1539 1537 1536 1535 1533 1531 1529
1497 1500 1503 1506 1508 1511 1514 1517 1520 1523 1525 1527 1529 1531 1533 1534 1536 1537 1538 1539 1539 1540 1541 1541 1541 1541 1541 1542 1542 1541 1541 1539 1538 1537 1536 1533 1533 1531 1530 1528 1527 1525 1523
1494 1497 1500 1503 1505 1508 1511 1514 1517 1520 1522 1524 1525 1527 1529 1530 1531 1533 1534 1534 1535 1535 1536 1536 1536 1536 1537 1537 1537 1536 1535 1534 1533 1532 1531 1528 1526 1525 1524 1522 1521 1519 1517
1491 1494 1496 1499 1502 1505 1508 1511 1514 1516 1518 1519 1521 1523 1524 1526 1527 1528 1529 1529 1530 1530 1531 1531 1531 1531 1531 1531 1531 1531 1530 1528 1526 1526 1525 1523 1520 1518 1517 1516 1514 1513 1511
1487 1490 1493 1496 1498 1501 1504 1507 1509 1511 1513 1515 1517 1518 1519 1521 1522 1523 1524 1524 1524 1525 1526 1526 1526 1526 1526 1526 1526 1525 1524 1523 1521 1519 1518 1517 1515 1513 1510 1509 1508 1506 1504